Time,TemperatureF,DewpointF,PressureIn,WindDirection,WindDirectionDegrees,WindSpeedMPH,WindSpeedGustMPH,Humidity,HourlyPrecipIn,Conditions,Clouds,dailyrainin,SoftwareType,DateUTC
2013-03-31 00:02:00,32.0,26.0,29.96,North,0,0.0,2.0,79,0.00,,,0.00,,2013-03-31 00:02:00,
2013-03-31 00:11:00,32.0,26.0,29.96,North,0,0.0,2.0,79,0.00,,,0.00,,2013-03-31 00:11:00,
2013-03-31 00:22:00,32.0,27.0,29.96,North,0,0.0,2.0,80,0.00,,,0.00,,2013-03-31 00:22:00,
2013-03-31 00:32:00,31.0,26.0,29.96,North,0,0.0,2.0,81,0.00,,,0.00,,2013-03-31 00:32:00,
2013-03-31 00:42:00,31.0,26.0,29.96,North,0,0.0,2.0,81,0.00,,,0.00,,2013-03-31 00:42:00,
2013-03-31 00:52:00,31.0,26.0,29.96,North,0,0.0,2.0,81,0.00,,,0.00,,2013-03-31 00:52:00,
2013-03-31 02:02:00,31.0,26.0,29.96,North,0,0.0,2.0,82,0.00,,,0.00,,2013-03-31 01:02:00,
2013-03-31 02:11:00,31.0,26.0,29.96,North,0,0.0,2.0,82,0.00,,,0.00,,2013-03-31 01:11:00,
2013-03-31 02:22:00,30.0,26.0,29.96,North,0,0.0,0.0,84,0.00,,,0.00,,2013-03-31 01:22:00,
2013-03-31 02:32:00,30.0,26.0,29.96,North,0,0.0,0.0,84,0.00,,,0.00,,2013-03-31 01:32:00,
2013-03-31 02:42:00,30.0,26.0,29.96,North,0,0.0,0.0,84,0.00,,,0.00,,2013-03-31 01:42:00,
2013-03-31 02:52:00,30.0,26.0,29.96,North,0,0.0,1.0,85,0.00,,,0.00,,2013-03-31 01:52:00,
2013-03-31 03:01:00,30.0,26.0,29.96,North,0,0.0,2.0,86,0.00,,,0.00,,2013-03-31 02:01:00,
2013-03-31 03:12:00,30.0,26.0,29.96,North,0,0.0,2.0,86,0.00,,,0.00,,2013-03-31 02:12:00,
2013-03-31 03:21:00,29.0,26.0,29.96,North,0,0.0,0.0,87,0.00,,,0.00,,2013-03-31 02:21:00,
2013-03-31 03:32:00,29.0,26.0,29.96,North,0,0.0,0.0,87,0.00,,,0.00,,2013-03-31 02:32:00,
2013-03-31 03:42:00,29.0,26.0,29.96,North,0,0.0,0.0,87,0.00,,,0.00,,2013-03-31 02:42:00,
2013-03-31 03:52:00,29.0,26.0,29.96,North,0,0.0,1.0,87,0.00,,,0.00,,2013-03-31 02:52:00,
2013-03-31 04:01:00,28.0,24.0,29.96,North,0,0.0,0.0,86,0.00,,,0.00,,2013-03-31 03:01:00,
2013-03-31 04:12:00,28.0,24.0,29.96,North,0,0.0,0.0,86,0.00,,,0.00,,2013-03-31 03:12:00,
2013-03-31 04:21:00,28.0,24.0,29.96,North,0,0.0,0.0,86,0.00,,,0.00,,2013-03-31 03:21:00,
2013-03-31 04:32:00,28.0,25.0,29.96,North,0,0.0,0.0,88,0.00,,,0.00,,2013-03-31 03:32:00,
2013-03-31 04:42:00,28.0,25.0,29.96,North,0,0.0,0.0,88,0.00,,,0.00,,2013-03-31 03:42:00,
2013-03-31 04:54:00,28.0,25.0,29.96,North,0,0.0,1.0,89,0.00,,,0.00,,2013-03-31 03:54:00,
2013-03-31 05:02:00,28.0,-99.9,29.96,North,0,0.0,0.0,90,0.00,,,0.00,,2013-03-31 04:02:00,
2013-03-31 05:12:00,28.0,25.0,29.96,North,0,0.0,0.0,90,0.00,,,0.00,,2013-03-31 04:12:00,
2013-03-31 05:22:00,28.0,25.0,29.96,North,0,0.0,0.0,90,0.00,,,0.00,,2013-03-31 04:22:00,
2013-03-31 05:32:00,28.0,25.0,29.96,North,0,0.0,0.0,90,0.00,,,0.00,,2013-03-31 04:32:00,
2013-03-31 05:42:00,28.0,25.0,29.96,North,0,0.0,0.0,90,0.00,,,0.00,,2013-03-31 04:42:00,
2013-03-31 05:52:00,28.0,25.0,29.96,North,0,0.0,1.0,90,0.00,,,0.00,,2013-03-31 04:52:00,
2013-03-31 06:02:00,28.0,25.0,29.96,North,0,0.0,1.0,90,0.00,,,0.00,,2013-03-31 05:02:00,
2013-03-31 06:12:00,28.0,25.0,29.96,North,0,0.0,1.0,90,0.00,,,0.00,,2013-03-31 05:12:00,
2013-03-31 06:22:00,28.0,25.0,29.96,North,0,0.0,2.0,90,0.00,,,0.00,,2013-03-31 05:22:00,
2013-03-31 06:32:00,27.0,24.0,29.96,North,0,0.0,0.0,90,0.00,,,0.00,,2013-03-31 05:32:00,
2013-03-31 06:42:00,27.0,24.0,29.96,North,0,0.0,0.0,90,0.00,,,0.00,,2013-03-31 05:42:00,
2013-03-31 06:52:00,27.0,25.0,29.97,North,0,0.0,0.0,91,0.00,,,0.00,,2013-03-31 05:52:00,
2013-03-31 07:01:00,27.0,25.0,29.97,North,0,0.0,0.0,91,0.00,,,0.00,,2013-03-31 06:01:00,
2013-03-31 07:11:00,27.0,25.0,29.97,North,0,0.0,0.0,91,0.00,,,0.00,,2013-03-31 06:11:00,
2013-03-31 07:22:00,27.0,25.0,29.97,North,0,0.0,1.0,91,0.00,,,0.00,,2013-03-31 06:22:00,
2013-03-31 07:32:00,28.0,25.0,29.96,North,0,0.0,1.0,90,0.00,,,0.00,,2013-03-31 06:32:00,
2013-03-31 07:42:00,28.0,25.0,29.96,North,0,0.0,1.0,90,0.00,,,0.00,,2013-03-31 06:42:00,
2013-03-31 07:52:00,28.0,25.0,29.96,North,0,0.0,1.0,90,0.00,,,0.00,,2013-03-31 06:52:00,
2013-03-31 08:01:00,29.0,26.0,29.96,North,0,0.0,3.0,90,0.00,,,0.00,,2013-03-31 07:01:00,
2013-03-31 08:11:00,29.0,26.0,29.96,North,0,0.0,3.0,90,0.00,,,0.00,,2013-03-31 07:11:00,
2013-03-31 08:22:00,31.0,28.0,29.96,North,0,0.0,4.0,87,0.00,,,0.00,,2013-03-31 07:22:00,
2013-03-31 08:32:00,33.0,29.0,29.97,East,83,1.0,3.0,84,0.00,,,0.00,,2013-03-31 07:32:00,
2013-03-31 08:42:00,33.0,29.0,29.97,East,83,1.0,3.0,84,0.00,,,0.00,,2013-03-31 07:42:00,
2013-03-31 08:52:00,33.0,29.0,29.97,East,83,1.0,3.0,84,0.00,,,0.00,,2013-03-31 07:52:00,
2013-03-31 09:01:00,35.0,29.0,29.97,East,82,1.0,5.0,80,0.00,,,0.00,,2013-03-31 08:01:00,
2013-03-31 09:11:00,35.0,29.0,29.97,East,82,1.0,5.0,80,0.00,,,0.00,,2013-03-31 08:11:00,
2013-03-31 09:22:00,36.0,29.0,29.97,East,97,2.0,8.0,77,0.00,,,0.00,,2013-03-31 08:22:00,
2013-03-31 09:32:00,36.0,29.0,29.97,East,97,2.0,8.0,77,0.00,,,0.00,,2013-03-31 08:32:00,
2013-03-31 09:41:00,36.0,29.0,29.97,East,97,2.0,8.0,77,0.00,,,0.00,,2013-03-31 08:41:00,
2013-03-31 09:52:00,37.0,29.0,29.96,East,85,2.0,7.0,73,0.00,,,0.00,,2013-03-31 08:52:00,
2013-03-31 10:01:00,38.0,29.0,29.96,East,92,2.0,7.0,69,0.00,,,0.00,,2013-03-31 09:01:00,
2013-03-31 10:12:00,38.0,29.0,29.96,East,92,2.0,7.0,69,0.00,,,0.00,,2013-03-31 09:12:00,
2013-03-31 10:21:00,38.0,28.0,29.96,East,89,4.0,14.0,67,0.00,,,0.00,,2013-03-31 09:21:00,
2013-03-31 10:32:00,38.0,28.0,29.96,East,89,4.0,14.0,67,0.00,,,0.00,,2013-03-31 09:32:00,
2013-03-31 10:42:00,38.0,28.0,29.96,East,89,4.0,14.0,67,0.00,,,0.00,,2013-03-31 09:42:00,
2013-03-31 10:53:00,39.0,28.0,29.97,East,94,2.0,6.0,64,0.00,,,0.00,,2013-03-31 09:53:00,
2013-03-31 11:02:00,38.0,27.0,29.96,East,96,1.0,6.0,65,0.00,,,0.00,,2013-03-31 10:02:00,
2013-03-31 11:12:00,38.0,27.0,29.96,East,96,1.0,6.0,65,0.00,,,0.00,,2013-03-31 10:12:00,
2013-03-31 11:22:00,38.0,27.0,29.96,East,96,1.0,6.0,65,0.00,,,0.00,,2013-03-31 10:22:00,
2013-03-31 11:32:00,39.0,25.0,29.96,East,89,2.0,5.0,57,0.00,,,0.00,,2013-03-31 10:32:00,
2013-03-31 11:41:00,39.0,25.0,29.96,East,89,2.0,5.0,57,0.00,,,0.00,,2013-03-31 10:41:00,
2013-03-31 11:53:00,39.0,26.0,29.96,East,97,3.0,9.0,59,0.00,,,0.00,,2013-03-31 10:53:00,
2013-03-31 12:02:00,39.0,26.0,29.96,East,90,1.0,7.0,59,0.00,,,0.00,,2013-03-31 11:02:00,
2013-03-31 12:12:00,39.0,26.0,29.96,East,90,1.0,7.0,59,0.00,,,0.00,,2013-03-31 11:12:00,
2013-03-31 12:22:00,39.0,26.0,29.96,East,90,1.0,7.0,59,0.00,,,0.00,,2013-03-31 11:22:00,
2013-03-31 12:32:00,38.0,26.0,29.96,East,96,3.0,9.0,61,0.00,,,0.00,,2013-03-31 11:32:00,
2013-03-31 12:42:00,38.0,26.0,29.96,East,96,3.0,9.0,61,0.00,,,0.00,,2013-03-31 11:42:00,
2013-03-31 12:52:00,39.0,26.0,29.95,East,98,3.0,10.0,60,0.00,,,0.00,,2013-03-31 11:52:00,
2013-03-31 13:11:00,39.0,26.0,29.95,East,98,3.0,10.0,60,0.00,,,0.00,,2013-03-31 12:11:00,
2013-03-31 13:22:00,39.0,24.0,29.95,East,93,2.0,9.0,55,0.00,,,0.00,,2013-03-31 12:22:00,
2013-03-31 13:32:00,40.0,24.0,29.94,East,96,3.0,8.0,52,0.00,,,0.00,,2013-03-31 12:32:00,
2013-03-31 13:42:00,40.0,24.0,29.94,East,96,3.0,8.0,52,0.00,,,0.00,,2013-03-31 12:42:00,
2013-03-31 13:52:00,41.0,24.0,29.94,East,96,2.0,10.0,50,0.00,,,0.00,,2013-03-31 12:52:00,
2013-03-31 14:02:00,41.0,24.0,29.94,East,96,2.0,10.0,50,0.00,,,0.00,,2013-03-31 13:02:00,
2013-03-31 14:11:00,41.0,24.0,29.94,East,96,2.0,10.0,50,0.00,,,0.00,,2013-03-31 13:11:00,
2013-03-31 14:21:00,41.0,25.0,29.94,East,91,3.0,12.0,53,0.00,,,0.00,,2013-03-31 13:21:00,
2013-03-31 14:31:00,41.0,24.0,29.93,East,89,1.0,6.0,51,0.00,,,0.00,,2013-03-31 13:31:00,
2013-03-31 14:42:00,41.0,24.0,29.93,East,89,1.0,6.0,51,0.00,,,0.00,,2013-03-31 13:42:00,
2013-03-31 14:52:00,41.0,24.0,29.93,East,89,1.0,6.0,51,0.00,,,0.00,,2013-03-31 13:52:00,
2013-03-31 15:02:00,41.0,24.0,29.93,East,95,2.0,8.0,50,0.00,,,0.00,,2013-03-31 14:02:00,
2013-03-31 15:11:00,41.0,24.0,29.93,East,95,2.0,8.0,50,0.00,,,0.00,,2013-03-31 14:11:00,
2013-03-31 15:22:00,41.0,25.0,29.92,East,94,3.0,10.0,53,0.00,,,0.00,,2013-03-31 14:22:00,
2013-03-31 15:32:00,39.0,26.0,29.92,East,95,5.0,12.0,60,0.00,,,0.00,,2013-03-31 14:32:00,
2013-03-31 15:42:00,39.0,26.0,29.92,East,95,5.0,12.0,60,0.00,,,0.00,,2013-03-31 14:42:00,
2013-03-31 15:51:00,39.0,26.0,29.92,East,95,5.0,12.0,60,0.00,,,0.00,,2013-03-31 14:51:00,
2013-03-31 16:02:00,39.0,26.0,29.92,East,96,5.0,12.0,60,0.00,,,0.00,,2013-03-31 15:02:00,
2013-03-31 16:11:00,39.0,26.0,29.92,East,96,5.0,12.0,60,0.00,,,0.00,,2013-03-31 15:11:00,
2013-03-31 16:22:00,39.0,25.0,29.92,East,95,4.0,10.0,57,0.00,,,0.00,,2013-03-31 15:22:00,
2013-03-31 16:33:00,39.0,25.0,29.92,East,95,4.0,10.0,57,0.00,,,0.00,,2013-03-31 15:33:00,
2013-03-31 16:42:00,39.0,25.0,29.92,East,95,4.0,10.0,57,0.00,,,0.00,,2013-03-31 15:42:00,
2013-03-31 16:53:00,40.0,24.0,29.91,East,98,3.0,10.0,52,0.00,,,0.00,,2013-03-31 15:53:00,
2013-03-31 17:02:00,41.0,25.0,29.91,East,90,3.0,9.0,52,0.00,,,0.00,,2013-03-31 16:02:00,
2013-03-31 17:13:00,41.0,25.0,29.91,East,90,3.0,9.0,52,0.00,,,0.00,,2013-03-31 16:13:00,
2013-03-31 17:22:00,40.0,25.0,29.90,East,95,4.0,12.0,54,0.00,,,0.00,,2013-03-31 16:22:00,
2013-03-31 17:32:00,40.0,25.0,29.90,East,95,4.0,12.0,54,0.00,,,0.00,,2013-03-31 16:32:00,
2013-03-31 17:42:00,40.0,25.0,29.90,East,95,4.0,12.0,54,0.00,,,0.00,,2013-03-31 16:42:00,
2013-03-31 17:53:00,40.0,24.0,29.90,East,89,2.0,8.0,53,0.00,,,0.00,,2013-03-31 16:53:00,
2013-03-31 18:02:00,39.0,23.0,29.90,East,98,4.0,12.0,52,0.00,,,0.00,,2013-03-31 17:02:00,
2013-03-31 18:12:00,39.0,23.0,29.90,East,98,4.0,12.0,52,0.00,,,0.00,,2013-03-31 17:12:00,
2013-03-31 18:22:00,39.0,23.0,29.90,East,98,4.0,12.0,52,0.00,,,0.00,,2013-03-31 17:22:00,
2013-03-31 18:32:00,39.0,24.0,29.90,East,94,3.0,10.0,54,0.00,,,0.00,,2013-03-31 17:32:00,
2013-03-31 18:42:00,39.0,24.0,29.90,East,94,3.0,10.0,54,0.00,,,0.00,,2013-03-31 17:42:00,
2013-03-31 18:52:00,39.0,23.0,29.89,East,97,2.0,7.0,53,0.00,,,0.00,,2013-03-31 17:52:00,
2013-03-31 19:02:00,39.0,23.0,29.90,East,100,3.0,12.0,53,0.00,,,0.00,,2013-03-31 18:02:00,
2013-03-31 19:12:00,39.0,23.0,29.90,East,100,3.0,12.0,53,0.00,,,0.00,,2013-03-31 18:12:00,
2013-03-31 19:21:00,39.0,23.0,29.90,East,100,3.0,12.0,53,0.00,,,0.00,,2013-03-31 18:21:00,
2013-03-31 19:32:00,38.0,24.0,29.89,East,95,3.0,10.0,56,0.00,,,0.00,,2013-03-31 18:32:00,
2013-03-31 19:41:00,38.0,24.0,29.89,East,95,3.0,10.0,56,0.00,,,0.00,,2013-03-31 18:41:00,
2013-03-31 19:53:00,38.0,25.0,29.89,East,99,4.0,10.0,60,0.00,,,0.00,,2013-03-31 18:53:00,
2013-03-31 20:02:00,38.0,25.0,29.89,East,99,4.0,10.0,60,0.00,,,0.00,,2013-03-31 19:02:00,
2013-03-31 20:11:00,38.0,25.0,29.89,East,99,4.0,10.0,60,0.00,,,0.00,,2013-03-31 19:11:00,
2013-03-31 20:21:00,38.0,27.0,29.90,East,96,3.0,7.0,65,0.00,,,0.00,,2013-03-31 19:21:00,
2013-03-31 20:32:00,37.0,28.0,29.90,East,99,3.0,7.0,69,0.00,,,0.00,,2013-03-31 19:32:00,
2013-03-31 20:42:00,37.0,28.0,29.90,East,99,3.0,7.0,69,0.00,,,0.00,,2013-03-31 19:42:00,
2013-03-31 20:53:00,37.0,28.0,29.90,East,95,3.0,8.0,71,0.00,,,0.00,,2013-03-31 19:53:00,
2013-03-31 21:02:00,37.0,28.0,29.90,East,95,3.0,8.0,71,0.00,,,0.00,,2013-03-31 20:02:00,
2013-03-31 21:11:00,37.0,28.0,29.90,East,95,3.0,8.0,71,0.00,,,0.00,,2013-03-31 20:11:00,
2013-03-31 21:21:00,37.0,28.0,29.90,East,95,3.0,8.0,71,0.00,,,0.00,,2013-03-31 20:21:00,
2013-03-31 21:43:00,36.0,29.0,29.91,East,96,4.0,9.0,76,0.00,,,0.00,,2013-03-31 20:43:00,
2013-03-31 21:52:00,36.0,29.0,29.91,East,96,4.0,9.0,76,0.00,,,0.00,,2013-03-31 20:52:00,
2013-03-31 22:02:00,35.0,29.0,29.91,East,93,2.0,7.0,78,0.00,,,0.00,,2013-03-31 21:02:00,
2013-03-31 22:11:00,35.0,29.0,29.91,East,93,2.0,7.0,78,0.00,,,0.00,,2013-03-31 21:11:00,
2013-03-31 22:22:00,34.0,28.0,29.90,East,98,2.0,9.0,80,0.00,,,0.00,,2013-03-31 21:22:00,
2013-03-31 22:33:00,34.0,29.0,29.90,East,99,2.0,7.0,82,0.00,,,0.00,,2013-03-31 21:33:00,
2013-03-31 22:43:00,34.0,29.0,29.90,East,99,2.0,7.0,82,0.00,,,0.00,,2013-03-31 21:43:00,
2013-03-31 22:53:00,34.0,29.0,29.90,East,99,2.0,7.0,82,0.00,,,0.00,,2013-03-31 21:53:00,
2013-03-31 23:03:00,33.0,28.0,29.90,East,94,2.0,9.0,83,0.00,,,0.00,,2013-03-31 22:03:00,
2013-03-31 23:12:00,33.0,28.0,29.90,East,94,2.0,9.0,83,0.00,,,0.00,,2013-03-31 22:12:00,
2013-03-31 23:23:00,33.0,28.0,29.89,East,95,1.0,4.0,82,0.00,,,0.00,,2013-03-31 22:23:00,
2013-03-31 23:32:00,33.0,28.0,29.89,East,95,1.0,4.0,82,0.00,,,0.00,,2013-03-31 22:32:00,
2013-03-31 23:42:00,33.0,28.0,29.89,East,95,1.0,4.0,82,0.00,,,0.00,,2013-03-31 22:42:00,
2013-03-31 23:53:00,33.0,28.0,29.89,North,0,0.0,4.0,83,0.00,,,0.00,,2013-03-31 22:53:00,